Tracking 35331 objects as of 16-Sep-2026
HD Live streaming from Space Station
objects crossing your sky now

STARLINK-3754

Track STARLINK-3754 now!
10-day predictions
STARLINK-3754 is classified as:


NORAD ID: 52350
Int'l Code: 2022-045V
Launch date: April 29, 2022
Source: United States (US)
Launch site: AIR FORCE EASTERN TEST RANGE (AFETR)
Your satellite tracking list
Your tracking list is empty




NASA's NSSDC Master Catalog

Two Line Element Set (TLE):
1 52350U 22045V   26258.83700640  .00003989  00000-0  12912-3 0  9996
2 52350  53.1620  51.1938 0001397  92.0479 268.0684 15.34401385244684
Source of the keplerian elements: AFSPC